Location: Street
(51.1247°N, 2.7429°W)
Time: 04:14:18
(UTC+00:00)

Transit 2A Rocket - Pass Details

Date: 28 November 2020
Orbit: 592 x 911 km, 66.7° (Epoch: 16 January)

Event Time Altitude Azimuth Distance (km) Brightness Sun altitude
Exits shadow 04:21:03 22° 13° (NNE) 1,708 6.9 -31.7°
Drops below altitude 10° 04:23:10 10° 29° (NNE) 2,341 7.8 -31.4°
Sets 04:25:41 0° 38° (NE) 3,216 8.8 -31.0°
